Location: Jackson Park
(37.2862°N, 79.9123°W)
Time: 21:58:40
(UTC+00:00)

Transit 4A - Pass Details

Date: 15 May 2026
Orbit: 860 x 980 km, 66.8° (Epoch: 9 June)

Event Time Altitude Azimuth Distance (km) Brightness Sun altitude
Rises 13:49:52 0° 231° (SW) 3,532 10.6 41.7°
Reaches altitude 10° 13:52:32 10° 239° (WSW) 2,613 10.0 42.2°
Maximum altitude 13:58:08 37° 306° (NW) 1,420 8.9 43.3°
Drops below altitude 10° 14:03:56 10° 13° (NNE) 2,698 10.5 44.4°
Sets 14:06:45 0° 21° (NNE) 3,662 11.1 45.0°
